Weather History for Crestview, FL

Change the Weather History Date:

Tuesday, January 22, 2013

  Actual Average Record
Temperature  
Mean Temperature 47 °F -  
Max Temperature 60 °F 61 °F 80 °F (1949)
Min Temperature 33 °F 35 °F 21 °F (2009)
Degree Days  
Heating Degree Days 18    
Moisture  
Dew Point 31 °F    
Average Humidity 61    
Maximum Humidity 92    
Minimum Humidity 27    
Precipitation  
Precipitation 0.00 in - - ()
Sea Level Pressure  
Sea Level Pressure 30.31 in    
Wind  
Wind Speed 4 mph (North)    
Max Wind Speed 9 mph    
Max Gust Speed -    
Visibility 10 miles    
Events      
Averages and records for this station are not official NWS values.
T = Trace of Precipitation, MM = Missing Value Source: NWS Daily Summary

Daily Weather History Graph

Daily Weather History Graph

Search for Another Location

Airport:

Trip Planner

Search our weather history database for the weather conditions in past years. The results will help you decide how hot, cold, wet, or windy it might be!

Date:

Astronomy

Jan. 22, 2013 Rise Set
Actual Time 6:42 AM CST 5:13 PM CST
Civil Twilight 6:16 AM CST 5:39 PM CST
Nautical Twilight 5:47 AM CST 6:08 PM CST
Astronomical Twilight 5:18 AM CST 6:37 PM CST
Moon 1:38 PM CST (1/22) 3:00 AM CST (1/22)
Length of Visible Light 11h 22m
Length of Day
10h 31m
Waxing Gibbous, 83% of the Moon is Illuminated
Jan 22
Waxing Gibbous
Jan 26
Full
Feb 3
Last Quarter
Feb 10
New
Feb 17
First Quarter

Hourly Weather History & Observations

Time (CST) Temp. Windchill Dew Point Humidity Pressure Visibility Wind Dir Wind Speed Gust Speed Precip Events Conditions
12:53 AM 46.9 °F - 37.9 °F 71% 30.21 in 10.0 mi North 3.5 mph - N/A   Clear
1:53 AM 45.0 °F 43.5 °F 36.0 °F 71% 30.22 in 10.0 mi North 3.5 mph - N/A   Clear
2:53 AM 44.1 °F 42.5 °F 35.1 °F 71% 30.23 in 10.0 mi North 3.5 mph - N/A   Clear
3:53 AM 41.0 °F 39.0 °F 34.0 °F 76% 30.24 in 10.0 mi North 3.5 mph - N/A   Clear
4:53 AM 41.0 °F 38.0 °F 33.1 °F 73% 30.26 in 10.0 mi North 4.6 mph - N/A   Clear
5:53 AM 39.0 °F 36.8 °F 30.9 °F 73% 30.29 in 10.0 mi North 3.5 mph - N/A   Clear
6:53 AM 37.9 °F - 30.0 °F 73% 30.32 in 10.0 mi North - - N/A   Clear
7:53 AM 41.0 °F 35.8 °F 28.0 °F 60% 30.34 in 10.0 mi North 8.1 mph - N/A   Clear
8:53 AM 45.0 °F 41.8 °F 27.0 °F 49% 30.37 in 10.0 mi Variable 5.8 mph - N/A   Clear
9:53 AM 50.0 °F - 24.1 °F 36% 30.38 in 10.0 mi NNE 8.1 mph - N/A   Clear
10:53 AM 53.1 °F - 21.0 °F 29% 30.36 in 10.0 mi North 9.2 mph - N/A   Clear
11:53 AM 57.0 °F - 25.0 °F 29% 30.34 in 10.0 mi Variable 5.8 mph - N/A   Clear
12:53 PM 57.9 °F - 24.1 °F 27% 30.31 in 10.0 mi North 3.5 mph - N/A   Clear
1:53 PM 57.0 °F - 26.1 °F 30% 30.30 in 10.0 mi NNW 5.8 mph - N/A   Overcast
2:53 PM 59.0 °F - 27.0 °F 29% 30.29 in 10.0 mi North 4.6 mph - N/A   Partly Cloudy
3:53 PM 60.1 °F - 28.9 °F 31% 30.31 in 10.0 mi North 5.8 mph - N/A   Clear
4:53 PM 55.0 °F - 30.9 °F 40% 30.31 in 10.0 mi NNE 3.5 mph - N/A   Clear
5:53 PM 44.1 °F - 36.0 °F 73% 30.32 in 10.0 mi Calm Calm - N/A   Clear
6:53 PM 41.0 °F - 36.0 °F 82% 30.32 in 10.0 mi Calm Calm - N/A   Clear
7:53 PM 39.9 °F - 35.1 °F 83% 30.34 in 10.0 mi Calm Calm - N/A   Clear
8:53 PM 36.0 °F - 33.1 °F 89% 30.35 in 10.0 mi Calm Calm - N/A   Clear
9:53 PM 35.1 °F - 33.1 °F 92% 30.37 in 10.0 mi Calm Calm - N/A   Clear
10:53 PM 34.0 °F - 32.0 °F 92% 30.37 in 10.0 mi Calm Calm - N/A   Clear
11:53 PM 33.1 °F - 30.9 °F 92% 30.37 in 10.0 mi Calm Calm - N/A   Clear